Location: Franzen
(48.6167°N, 15.3833°E)
Time: 05:55:38
(UTC+00:00)

Altair - Pass Details

Date: 09 August 2021
Orbit: 1501 x 1682 km, 47.2° (Epoch: 21 September)

Event Time Altitude Azimuth Distance (km) Brightness Sun altitude
Exits shadow 22:19:22 36° 198° (SSW) 2,292 7.9 -25.0°
Maximum altitude 22:22:51 51° 148° (SSE) 1,898 7.5 -25.2°
Drops below altitude 10° 22:31:43 10° 77° (ENE) 3,694 9.5 -25.4°
Sets 22:34:49 0° 72° (ENE) 4,663 10.2 -25.5°
